[[{"header":{"parameterUnit":"m.s-1","parameterCategory":1,"la1":30.2991,"la2":30.254,"lo1":-89.0895,"lo2":-89.0444,"dy":0.0017,"dx":0.0017,"nx":28,"ny":28,"refTime":"2024-07-23T21:00:00:Z","depth":0,"parameterNumber":2,"parameterNumberName":"U-component_of_WINDS"},"data":[0,0,0,0,0,0,0,0,0,0,0,0,0,0,0,0,0,0,0,0,0,0,0,0,0,0,0,0,0,0,0,0,0,0,0,0,0,0,0,0,0,0,0,0,0,0,0,0,0,0,0,0,0,0,0,0,0,0,1.3741,1.3742,0,1.3792,1.3793,1.3794,1.3734,1.3732,1.373,1.3728,1.3786,1.3789,1.3793,0,0,0,0,0,0,0,0,0,0,0,0,0,1.3598,1.3601,1.3741,1.3742,1.3742,1.3792,1.3793,1.3794,1.3735,1.3732,1.3729,1.3727,1.3784,1.3789,1.3793,0,0,0,0,0,0,0,0,0,0,0,0,0,1.3656,1.3602,1.3741,1.3719,1.3717,1.3792,1.3793,1.3794,1.3735,1.3732,1.3728,1.3725,1.3783,1.3788,1.3794,1.3894,0,0,1.381,1.3813,0,0,0,0,0,0,0,0,1.3653,1.3661,1.3721,1.372,1.3719,1.3753,1.3764,1.3828,1.3736,1.3729,1.3727,1.3724,1.3778,1.3784,1.3801,1.3897,1.39,1.3811,1.3814,1.3816,1.3818,0,0,0,0,0,0,0,1.3649,1.3659,1.3761,1.3722,1.3721,1.3708,1.3713,1.3776,1.3772,1.3729,1.3725,1.3731,1.3777,1.3796,1.3802,1.3901,1.3811,1.3815,1.3819,1.3821,1.4085,1.4089,0,0,0,0,0,0,1.3647,1.3656,1.376,1.3763,1.3677,1.3714,1.3719,1.3746,1.3771,1.3771,1.3734,1.3728,1.3788,1.3795,1.3803,1.3925,1.3816,1.3821,1.3825,1.4081,1.4086,1.409,0,0,0,0,0,0,1.3644,1.3657,1.3758,1.3708,1.372,1.372,1.3751,1.3749,1.3767,1.3775,1.3774,1.3754,1.3786,1.3796,1.3872,1.3926,1.3824,1.3829,1.4077,1.4083,1.4088,1.4168,0,0,0,0,0,0,1.364,1.3656,1.3693,1.371,1.3723,1.3824,1.3754,1.3752,1.3776,1.3769,1.3793,1.3794,1.3784,1.3865,1.3878,1.3932,1.3833,1.4072,1.4079,1.4086,1.416,1.4175,1.4188,0,0,0,0,0,1.3635,1.3714,1.3695,1.3708,1.3769,1.3827,1.3835,1.3821,1.3781,1.3819,1.3824,1.3793,1.3918,1.3873,1.3887,1.3944,1.4069,1.4077,1.4086,1.4154,1.4172,1.4188,0,0,0,0,0,0,1.3705,1.3715,1.3695,1.3781,1.3803,1.3817,1.3865,1.384,1.3876,1.3868,1.385,1.3856,1.3938,1.3948,1.3898,1.4044,1.3987,1.3999,1.4034,1.4052,1.4065,1.4062,1.3838,0,0,0,0,0,1.373,1.3774,1.3782,1.3858,1.387,1.3866,1.3891,1.3877,1.3901,1.3911,1.3921,1.3947,1.3992,1.4022,1.4064,1.4161,1.4167,1.4207,1.4221,1.4232,1.4243,1.4298,1.4317,1.4118,1.4117,1.4117,0,0,1.3783,1.3794,1.3824,1.3872,1.3888,1.3937,1.3874,1.3928,1.3965,1.3919,1.3992,1.4001,1.4029,1.4117,1.4156,1.4128,1.43,1.4243,1.4252,1.4257,1.4309,1.4327,1.4344,1.4123,1.4122,1.4121,0,0,1.3904,1.3916,1.3981,1.3999,1.4023,1.402,1.4036,1.4054,1.4057,1.413,1.4097,1.4142,1.4219,1.4241,1.4262,1.4393,1.4367,1.4408,1.4481,1.4535,1.455,1.4564,1.4613,1.4631,1.4418,1.4418,1.4418,0,1.3967,1.4038,1.4018,1.4075,1.4098,1.4058,1.4125,1.4143,1.4181,1.4199,1.4167,1.4264,1.428,1.4373,1.4405,1.4423,1.4443,1.4405,1.4549,1.4563,1.4576,1.4622,1.464,1.4423,1.4423,1.4422,1.4422,0,1.4115,1.4165,1.4215,1.4251,1.428,1.4342,1.4334,1.4366,1.435,1.4351,1.4427,1.4445,1.449,1.4511,1.4497,1.4603,1.4585,1.4551,1.4494,1.46,1.4643,1.4661,1.443,1.4428,1.4427,1.4426,0,0,1.4282,1.4307,1.4326,1.4343,1.4368,1.4407,1.4468,1.4511,1.454,1.4568,1.462,1.4687,1.4656,1.468,1.4668,1.4715,1.482,1.4675,1.4676,1.4703,1.4942,1.4969,1.4989,1.4803,1.4806,1.4809,1.494,0,1.4406,1.4509,1.4494,1.4595,1.4642,1.4605,1.4659,1.4681,1.4684,1.4726,1.473,1.4778,1.4732,1.4747,1.4791,1.4798,1.4868,1.4788,1.4854,1.4856,1.485,1.5012,1.504,1.5163,1.4957,1.496,1.4962,0,1.4563,1.4596,1.4701,1.472,1.4739,1.4788,1.4827,1.4867,1.4892,1.4891,1.4919,1.4899,1.4962,1.4903,1.4992,1.4938,1.4964,1.4971,1.4976,1.4983,1.4917,1.5025,1.5202,1.5221,1.4988,1.4986,1.4984,0,1.4677,1.4747,1.482,1.4835,1.4859,1.4894,1.4906,1.4927,1.4955,1.499,1.5008,1.505,1.5074,1.5108,1.5101,1.5058,1.5193,1.5132,1.5196,1.5197,1.5228,1.5226,1.5413,1.5242,1.5241,1.5241,1.524,0,1.4817,1.4884,1.4871,1.4916,1.4991,1.4974,1.5048,1.5056,1.5076,1.5123,1.5094,1.5139,1.5126,1.5172,1.5167,1.5243,1.5254,1.5256,1.5255,1.526,1.526,1.5278,1.527,1.5246,1.5245,1.5244,1.5243,0,1.4957,1.4951,1.5028,1.5044,1.505,1.5104,1.5119,1.5162,1.5163,1.5223,1.5237,1.5239,1.5291,1.5287,1.5346,1.5343,1.5437,1.5424,1.5428,1.5426,1.5491,1.5486,1.5698,1.5726,1.5534,1.5536,1.5537,0,1.5048,1.5098,1.5119,1.5148,1.5162,1.5209,1.5237,1.5223,1.5253,1.5287,1.5327,1.5376,1.5415,1.5501,1.5509,1.5555,1.5544,1.5616,1.5551,1.5556,1.5548,1.5546,1.5552,1.5629,1.5631,1.5633,1.5634,0,1.521,1.5205,1.5245,1.5285,1.5319,1.535,1.5378,1.5404,1.5393,1.5429,1.5482,1.5512,1.5572,1.5623,1.5666,1.5681,1.5657,1.5654,1.5672,1.5679,1.568,1.5682,1.5465,1.565,1.5648,1.5647,1.5646,1.5646,1.533,1.5374,1.5396,1.5442,1.5461,1.5489,1.5531,1.5536,1.5579,1.5627,1.5616,1.5676,1.5702,1.5758,1.5777,1.5825,1.58,1.5825,1.5832,1.5839,1.5847,1.567,1.5833,1.5833,1.5832,1.5832,1.5831,0,1.5493,1.5505,1.5547,1.5588,1.5625,1.5597,1.5627,1.5661,1.5713,1.5739,1.5778,1.5839,1.5889,1.59,1.5948,1.5985,1.5975,1.5998,1.5996,1.6,1.5866,1.5847,1.6005,1.6005,1.6005,1.6005,1.6005,1.6005,1.5582,1.5655,1.5652,1.5736,1.5748,1.5806,1.5826,1.5852,1.5872,1.5942,1.5982,1.5989,1.601,1.6059,1.6103,1.6106,1.6126,1.6153,1.6152,1.6027,1.6009,1.5993,1.5975,1.6157,1.6158,1.6282,1.6284,1.6284]},{"header":{"parameterUnit":"m.s-1","parameterCategory":1,"la1":30.2991,"la2":30.254,"lo1":-89.0895,"lo2":-89.0444,"dy":0.0017,"dx":0.0017,"nx":28,"ny":28,"refTime":"2024-07-23T21:00:00:Z","depth":0,"parameterNumber":3,"parameterNumberName":"V-component_of_WINDS"},"data":[0,0,0,0,0,0,0,0,0,0,0,0,0,0,0,0,0,0,0,0,0,0,0,0,0,0,0,0,0,0,0,0,0,0,0,0,0,0,0,0,0,0,0,0,0,0,0,0,0,0,0,0,0,0,0,0,0,0,4.9996,4.9998,0,5.0194,5.0197,5.0199,5.0207,5.0204,5.0202,5.02,5.0392,5.04,5.0407,0,0,0,0,0,0,0,0,0,0,0,0,0,4.9614,4.9621,4.9996,4.9999,5.0001,5.0194,5.0197,5.0199,5.0207,5.0204,5.0201,5.0199,5.039,5.0399,5.0407,0,0,0,0,0,0,0,0,0,0,0,0,0,4.9793,4.9623,4.9996,5.0028,5.0033,5.0194,5.0197,5.02,5.0208,5.0204,5.0201,5.0197,5.0387,5.0398,5.0409,5.0547,0,0,5.0442,5.0447,0,0,0,0,0,0,0,0,4.9783,4.9807,5.0021,5.0026,5.0032,5.0172,5.0133,5.0316,5.0208,5.0141,5.02,5.0196,5.0321,5.0338,5.0382,5.0556,5.0564,5.0443,5.045,5.0454,5.0458,0,0,0,0,0,0,0,4.977,4.9798,5.0074,5.0024,5.0031,5.003,5.0051,5.0168,5.0248,5.0147,5.0148,5.0172,5.0324,5.0371,5.0387,5.0567,5.0443,5.0453,5.0459,5.0464,5.0863,5.0867,0,0,0,0,0,0,4.9753,4.9788,5.0068,5.008,4.9897,5.004,5.0064,5.0131,5.0247,5.0262,5.0174,5.0171,5.0354,5.0374,5.0393,5.0564,5.0454,5.0465,5.0471,5.0859,5.0864,5.0868,0,0,0,0,0,0,4.9745,4.9778,5.006,4.9935,4.997,5.005,5.0125,5.0136,5.0185,5.0268,5.0281,5.0209,5.0352,5.0378,5.0509,5.0571,5.047,5.048,5.0854,5.0861,5.0866,5.0905,0,0,0,0,0,0,4.9734,4.9775,4.983,4.9936,4.9977,5.0176,5.0129,5.0143,5.0205,5.0202,5.0304,5.0318,5.0352,5.0493,5.052,5.0584,5.0488,5.0849,5.0857,5.0864,5.0899,5.0912,5.0923,0,0,0,0,0,4.972,4.9831,4.9833,4.9867,5.0049,5.0179,5.0202,5.0242,5.021,5.0265,5.0318,5.0314,5.0559,5.0506,5.0537,5.0605,5.0846,5.0855,5.0864,5.0893,5.0909,5.0922,0,0,0,0,0,0,4.9727,4.9845,4.9849,4.9998,5.0079,5.018,5.0251,5.0258,5.0347,5.0341,5.0383,5.0405,5.0536,5.0583,5.0522,5.0744,5.0698,5.0714,5.071,5.0726,5.0737,5.0724,5.0497,0,0,0,0,0,4.9746,4.9846,4.9942,5.0064,5.0105,5.0171,5.0229,5.0253,5.0337,5.037,5.0434,5.0512,5.0607,5.0668,5.076,5.0904,5.0927,5.0966,5.0978,5.0988,5.1001,5.1081,5.11,5.0898,5.0898,5.0898,0,0,4.9786,4.9863,4.9923,5.0068,5.0133,5.0233,5.02,5.0306,5.0379,5.0385,5.0515,5.0564,5.0654,5.0793,5.0857,5.0836,5.1062,5.0999,5.1006,5.1015,5.1093,5.1112,5.1129,5.0905,5.0903,5.0902,0,0,4.9911,4.9979,5.009,5.0156,5.0257,5.0301,5.0327,5.0428,5.0462,5.0593,5.06,5.0686,5.0848,5.0913,5.0967,5.1116,5.1116,5.1144,5.1207,5.1285,5.1301,5.1316,5.137,5.1389,5.1156,5.1157,5.1157,0,4.9947,5.0101,5.0144,5.0252,5.0315,5.0328,5.0439,5.05,5.0624,5.0666,5.0641,5.0846,5.0907,5.1062,5.1099,5.1142,5.1172,5.1133,5.1296,5.1311,5.1325,5.1377,5.1397,5.116,5.1159,5.1159,5.1159,0,5.0141,5.0247,5.0323,5.0448,5.0519,5.0627,5.0684,5.075,5.0767,5.0812,5.0944,5.1019,5.1127,5.1164,5.118,5.1321,5.1306,5.1288,5.1242,5.1346,5.1396,5.1416,5.1164,5.1163,5.1162,5.1161,0,0,5.0277,5.0425,5.0452,5.0509,5.0621,5.0703,5.081,5.0919,5.0975,5.1059,5.115,5.1287,5.1272,5.1333,5.1356,5.1424,5.1539,5.1398,5.1401,5.1423,5.1699,5.1714,5.1736,5.1539,5.1543,5.1546,5.1692,0,5.0415,5.0612,5.0654,5.0823,5.0921,5.0935,5.1028,5.1105,5.115,5.1237,5.1284,5.1382,5.1353,5.1391,5.1459,5.1511,5.1595,5.15,5.1622,5.1626,5.1602,5.1762,5.1778,5.1913,5.1712,5.1715,5.1718,0,5.0603,5.0697,5.0877,5.0978,5.102,5.1105,5.1208,5.1292,5.1378,5.1405,5.1475,5.1491,5.16,5.1548,5.1699,5.1634,5.1685,5.1718,5.1724,5.1738,5.1679,5.1782,5.1956,5.1977,5.1748,5.1746,5.1744,0,5.0687,5.0857,5.0987,5.1035,5.1155,5.1214,5.1266,5.135,5.1413,5.1501,5.1542,5.164,5.1694,5.1769,5.181,5.1768,5.1958,5.1909,5.1982,5.1981,5.2023,5.202,5.221,5.2053,5.2053,5.2052,5.2052,0,5.0838,5.0948,5.1027,5.1107,5.123,5.1275,5.1394,5.1444,5.1519,5.1607,5.1622,5.1703,5.1752,5.1839,5.1871,5.1992,5.2015,5.2039,5.2046,5.2039,5.2036,5.2075,5.2067,5.2058,5.2057,5.2056,5.2055,0,5.0952,5.101,5.1153,5.1256,5.1284,5.137,5.1456,5.1533,5.1577,5.1689,5.1717,5.1786,5.189,5.1938,5.2065,5.2086,5.2224,5.2223,5.2196,5.2199,5.2271,5.2264,5.2493,5.2526,5.2345,5.2347,5.2348,0,5.1047,5.1132,5.1245,5.1308,5.1363,5.1462,5.1527,5.1573,5.164,5.1746,5.1809,5.1915,5.2002,5.2167,5.2226,5.2323,5.2326,5.2399,5.234,5.2331,5.2329,5.2324,5.2333,5.2411,5.2412,5.2414,5.2415,0,5.1208,5.1233,5.1329,5.1435,5.1514,5.1599,5.1681,5.173,5.1789,5.1862,5.1971,5.2039,5.2171,5.2275,5.2376,5.2425,5.243,5.2433,5.2455,5.245,5.2431,5.2444,5.2227,5.2428,5.2427,5.2426,5.2425,5.2424,5.1317,5.1394,5.1487,5.1593,5.1661,5.1738,5.1816,5.1872,5.1965,5.2079,5.2099,5.2214,5.2297,5.2435,5.2487,5.2576,5.2559,5.2591,5.2599,5.2607,5.2612,5.2416,5.2594,5.2594,5.2593,5.2593,5.2593,0,5.148,5.1541,5.1639,5.1757,5.184,5.184,5.1931,5.2,5.2103,5.2182,5.2268,5.2393,5.2494,5.2561,5.2662,5.272,5.2725,5.2745,5.2742,5.2754,5.2621,5.2593,5.274,5.274,5.274,5.274,5.274,5.274,5.1576,5.1707,5.1743,5.1907,5.1965,5.2083,5.2135,5.2205,5.2269,5.2409,5.2495,5.2539,5.2613,5.272,5.2812,5.2828,5.2865,5.2887,5.2903,5.2778,5.2763,5.2748,5.2722,5.2894,5.2895,5.3029,5.303,5.3031]}]]